Location: Pedimozza
(42.0500°N, 9.3500°E)
Time: 18:17:20
(UTC+00:00)

Cosmos 2322 Rocket - Pass Details

Date: 19 August 2019
Orbit: 834 x 849 km, 71.0° (Epoch: 18 October)

Event Time Altitude Azimuth Distance (km) Brightness Sun altitude
Rises 22:19:52 0° 341° (NNW) 3,399 6.4 -33.2°
Reaches altitude 10° 22:22:28 10° 349° (N) 2,459 5.4 -33.4°
Enters shadow 22:26:34 36° 29° (NNE) 1,306 3.4 -33.6°
